Date String (YYYY-MM-DD hh:mm:ss) UTC,Instrument flags,Ambient pressure (hPa),Sample flow (lpm),Bypass flow (lpm),Sample temperature (°C),Ambient temperature (°C),ASC tube jacket temperature (°C),LED temperature (°C),Box temperature (°C),Sample RH (%),Span deviation,Mass concentration (μg/m³),Mass concentration (μg/m³),Mass concentration (μg/m³)
DateTimeUTC,F1_M11,P_M11,Q1_M11,Q2_M11,T1_M11,T2_M11,T3_M11,T4_M11,T5_M11,U1_M11,ZSPAN_M11,X0_M11,X2_M11,X1_M11
2022-03-08 07:00:00,,0824.4,5.01,0.00,22.3,21.9,00.0,31.3,24.0,07.6,0000.0,0008.24,0004.99,0004.78
2022-03-08 07:01:00,,0824.5,5.01,0.00,22.2,21.7,00.0,31.3,23.9,07.8,0000.0,0008.57,0005.09,0004.87
2022-03-08 07:02:00,,0824.5,5.00,0.00,22.2,21.6,00.0,31.3,23.8,07.9,-000.4,0008.86,0005.14,0004.90
2022-03-08 07:03:00,,0824.5,5.00,0.00,22.1,21.4,00.0,31.2,23.8,07.9,-000.5,0008.99,0005.26,0005.02
2022-03-08 07:04:00,,0824.4,5.01,0.00,22.1,21.3,00.0,31.2,23.7,07.8,-000.7,0009.24,0005.45,0005.18
2022-03-08 07:05:00,,0824.4,5.00,0.00,22.1,21.3,00.0,31.2,23.7,07.8,-000.8,0009.87,0005.64,0005.37
2022-03-08 07:06:00,,0824.4,4.99,0.00,22.0,21.4,00.0,31.2,23.7,07.7,-000.8,0010.49,0005.82,0005.53
2022-03-08 07:07:00,,0824.4,5.00,0.00,22.1,22.0,00.0,31.2,23.9,07.7,-000.4,0010.49,0005.93,0005.63
2022-03-08 07:08:00,,0824.5,4.99,0.00,22.3,22.7,00.0,31.3,24.2,07.6,-000.4,0009.99,0005.93,0005.64
2022-03-08 07:09:00,,0824.5,5.01,0.00,22.4,23.0,00.0,31.3,24.3,07.4,-000.6,0009.88,0006.01,0005.72
2022-03-08 07:10:00,,0824.4,4.99,0.00,22.4,22.8,00.0,31.3,24.3,07.4,-000.4,0009.96,0006.09,0005.78
2022-03-08 07:11:00,,0824.4,5.00,0.00,22.4,22.5,00.0,31.3,24.3,07.4,-000.3,0009.84,0006.00,0005.70
2022-03-08 07:12:00,,0824.4,5.01,0.00,22.4,22.3,00.0,31.3,24.2,07.4,-000.3,0009.56,0005.89,0005.59
2022-03-08 07:13:00,,0824.4,4.99,0.00,22.4,22.1,00.0,31.3,24.1,07.6,-000.0,0009.26,0005.88,0005.59
2022-03-08 07:14:00,,0824.4,5.01,0.00,22.4,22.0,00.0,31.3,24.1,07.7,0000.0,0009.28,0005.89,0005.61
2022-03-08 07:15:00,,0824.6,5.00,0.00,22.3,21.8,00.0,31.3,24.0,07.7,0000.0,0009.32,0005.91,0005.62
2022-03-08 07:16:00,,0824.5,5.01,0.00,22.3,21.8,00.0,31.3,24.0,07.8,0000.1,0009.00,0005.89,0005.59
2022-03-08 07:17:00,,0824.4,5.00,0.00,22.3,21.7,00.0,31.3,24.0,07.8,0000.3,0008.35,0005.84,0005.56
2022-03-08 07:18:00,,0824.4,5.00,0.00,22.3,21.6,00.0,31.3,24.0,07.8,0000.6,0008.35,0005.85,0005.56
2022-03-08 07:19:00,,0824.4,5.00,0.00,22.3,21.6,00.0,31.3,24.0,07.8,0000.6,0008.43,0005.96,0005.67
2022-03-08 07:20:00,,0824.4,4.99,0.00,22.2,21.5,00.0,31.3,24.0,07.8,0000.7,0008.52,0006.04,0005.75
2022-03-08 07:21:00,,0824.4,5.01,0.00,22.2,21.5,00.0,31.3,23.9,07.8,0001.0,0008.52,0006.06,0005.75
2022-03-08 07:22:00,,0824.4,4.99,0.00,22.2,21.4,00.0,31.3,23.9,07.8,0001.0,0008.54,0006.09,0005.78
2022-03-08 07:23:00,,0824.4,5.00,0.00,22.2,21.7,00.0,31.3,24.0,07.8,0000.9,0008.67,0006.15,0005.84
2022-03-08 07:24:00,,0824.4,4.99,0.00,22.3,22.5,00.0,31.3,24.2,07.8,0000.6,0008.82,0006.13,0005.80
2022-03-08 07:25:00,,0824.4,5.02,0.00,22.5,23.1,00.0,31.3,24.4,07.7,0000.6,0008.90,0006.04,0005.70
2022-03-08 07:26:00,,0824.4,5.00,0.00,22.6,23.1,00.0,31.4,24.5,07.7,0000.7,0008.73,0005.94,0005.62
2022-03-08 07:27:00,,0824.4,4.99,0.00,22.6,22.9,00.0,31.4,24.5,07.7,0000.6,0008.77,0005.92,0005.59
2022-03-08 07:28:00,,0824.4,5.00,0.00,22.6,22.6,00.0,31.4,24.4,07.7,0000.7,0008.88,0005.94,0005.60
2022-03-08 07:29:00,,0824.3,5.01,0.00,22.6,22.5,00.0,31.4,24.4,07.7,0000.7,0008.91,0005.97,0005.62
2022-03-08 07:30:00,,0824.4,5.00,0.00,22.5,22.3,00.0,31.4,24.3,07.8,0000.2,0009.03,0006.03,0005.67
2022-03-08 07:31:00,,0824.4,5.00,0.00,22.5,22.1,00.0,31.4,24.3,07.8,-000.2,0009.12,0006.12,0005.76
2022-03-08 07:32:00,,0824.3,5.00,0.00,22.5,22.0,00.0,31.4,24.2,07.9,-000.4,0009.66,0006.22,0005.86
2022-03-08 07:33:00,,0824.3,4.99,0.00,22.5,21.9,00.0,31.4,24.2,07.9,-000.4,0010.80,0006.35,0005.96
2022-03-08 07:34:00,,0824.3,5.00,0.00,22.5,21.9,00.0,31.4,24.2,07.9,-000.3,0011.03,0006.50,0006.07
2022-03-08 07:35:00,,0824.3,5.00,0.00,22.4,21.8,00.0,31.4,24.2,07.9,-000.0,0011.06,0006.68,0006.23
2022-03-08 07:36:00,,0824.3,5.00,0.00,22.4,21.7,00.0,31.4,24.1,07.9,-000.1,0011.14,0006.90,0006.44
2022-03-08 07:37:00,,0824.3,5.02,0.00,22.4,21.7,00.0,31.4,24.1,08.0,-000.2,0011.35,0007.09,0006.63
2022-03-08 07:38:00,,0824.3,4.99,0.00,22.4,21.6,00.0,31.4,24.1,08.0,-000.3,0011.68,0007.28,0006.81
2022-03-08 07:39:00,,0824.3,4.99,0.00,22.4,21.6,00.0,31.4,24.1,08.0,-000.6,0012.39,0007.46,0006.97
2022-03-08 07:40:00,,0824.3,5.01,0.00,22.3,21.5,00.0,31.4,24.1,08.0,-001.1,0012.62,0007.59,0007.08
2022-03-08 07:41:00,,0824.3,4.99,0.00,22.3,21.8,00.0,31.4,24.1,08.0,-001.2,0012.73,0007.68,0007.14
2022-03-08 07:42:00,,0824.3,5.01,0.00,22.4,22.5,00.0,31.4,24.3,08.0,-001.0,0012.94,0007.76,0007.20
2022-03-08 07:43:00,,0824.3,5.00,0.00,22.6,23.1,00.0,31.4,24.5,07.9,-000.9,0013.37,0007.78,0007.21
2022-03-08 07:44:00,,0824.3,5.00,0.00,22.7,23.1,00.0,31.5,24.6,07.8,-000.8,0012.35,0007.73,0007.17
2022-03-08 07:45:00,,0824.4,5.01,0.00,22.7,22.9,00.0,31.5,24.6,07.8,-000.8,0011.98,0007.66,0007.13
2022-03-08 07:46:00,,0824.3,5.01,0.00,22.7,22.6,00.0,31.5,24.5,07.8,-000.8,0011.84,0007.59,0007.09
2022-03-08 07:47:00,,0824.3,5.00,0.00,22.6,22.4,00.0,31.5,24.4,07.8,-000.7,0011.80,0007.55,0007.06
2022-03-08 07:48:00,,0824.3,4.99,0.00,22.6,22.3,00.0,31.5,24.4,07.8,-000.8,0012.40,0007.49,0007.00
2022-03-08 07:49:00,,0824.3,5.01,0.00,22.6,22.1,00.0,31.5,24.3,07.8,-000.6,0012.39,0007.44,0006.94
2022-03-08 07:50:00,,0824.3,5.00,0.00,22.6,22.0,00.0,31.5,24.3,07.9,-000.4,0011.64,0007.40,0006.93
2022-03-08 07:51:00,,0824.3,5.00,0.00,22.5,21.9,00.0,31.5,24.3,07.9,0000.1,0011.58,0007.42,0006.96
2022-03-08 07:52:00,,0824.3,4.99,0.00,22.5,21.8,00.0,31.5,24.2,07.9,0000.3,0011.59,0007.47,0007.03
2022-03-08 07:53:00,,0824.3,4.99,0.00,22.5,21.8,00.0,31.5,24.2,07.9,0000.0,0011.75,0007.54,0007.09
2022-03-08 07:54:00,,0824.3,4.99,0.00,22.5,21.7,00.0,31.5,24.2,07.9,-000.2,0011.38,0007.62,0007.19
2022-03-08 07:55:00,,0824.3,5.01,0.00,22.4,21.7,00.0,31.5,24.2,08.0,-000.2,0011.62,0007.78,0007.34
2022-03-08 07:56:00,,0824.3,5.00,0.00,22.4,21.6,00.0,31.4,24.1,08.0,-000.2,0011.79,0007.93,0007.48
2022-03-08 07:57:00,,0824.2,5.00,0.00,22.4,21.6,00.0,31.4,24.1,08.0,-000.5,0011.94,0008.05,0007.59
2022-03-08 07:58:00,,0824.3,4.99,0.00,22.4,21.5,00.0,31.4,24.1,08.0,-000.5,0012.17,0008.16,0007.68
2022-03-08 07:59:00,,0824.3,5.00,0.00,22.4,21.7,00.0,31.4,24.1,08.0,-000.3,0011.88,0008.24,0007.77
